Weather History for KOKV - May, 2013

Change the Weather History Date:

Saturday, May 25, 2013

  Actual Average (KMRB) Record (KMRB)
Temperature  
Mean Temperature 52 °F 64 °F  
Max Temperature 62 °F 75 °F 94 °F (1933)
Min Temperature 41 °F 52 °F 33 °F (1967)
Degree Days  
Heating Degree Days 14 4  
Month to date heating degree days 151  
Since 1 July heating degree days 5208  
Cooling Degree Days 0 2  
Month to date cooling degree days 34  
Year to date cooling degree days 43  
Growing Degree Days 2 (Base 50)    
Moisture  
Dew Point 35 °F    
Average Humidity 55    
Maximum Humidity 70    
Minimum Humidity 37    
Precipitation  
Precipitation 0.00 in 0.13 in 1.67 in (1952)
Month to date precipitation 3.31  
Year to date precipitation 14.95  
Sea Level Pressure  
Sea Level Pressure 30.18 in    
Wind  
Wind Speed 13 mph (WNW)    
Max Wind Speed 24 mph    
Max Gust Speed 32 mph    
Visibility 10 miles    
Events      
T = Trace of Precipitation, MM = Missing Value Source: NWS Daily Summary

Daily Weather History Graph

Daily Weather History Graph

Search for Another Location

Airport or City:

Trip Planner

Search our weather history database for the weather conditions in past years. The results will help you decide how hot, cold, wet, or windy it might be!

Date:

Astronomy

May. 25, 2013 Rise Set
Actual Time 5:51 AM EDT 8:27 PM EDT
Civil Twilight 5:20 AM EDT 8:58 PM EDT
Nautical Twilight 4:42 AM EDT 9:37 PM EDT
Astronomical Twilight 3:58 AM EDT 10:21 PM EDT
Moon 9:13 PM EDT (5/25) 6:16 AM EDT (5/25)
Length of Visible Light 15h 38m
Length of Day
14h 35m
Full, 100% of the Moon is Illuminated
May 25
Full
May 31
Last Quarter
Jun 8
New
Jun 16
First Quarter
Jun 23
Full

Hourly Weather History & Observations

Time (EDT) Temp. Windchill Dew Point Humidity Pressure Visibility Wind Dir Wind Speed Gust Speed Precip Events Conditions
12:15 AM 44.6 °F 41.4 °F 32.0 °F 61% 30.21 in 10.0 mi NNW 5.8 mph - N/A   Mostly Cloudy
12:35 AM 42.8 °F 37.5 °F 32.0 °F 66% 30.21 in 10.0 mi NW 9.2 mph - N/A   Clear
12:55 AM 42.8 °F 37.0 °F 32.0 °F 66% 30.22 in 10.0 mi WNW 10.4 mph - N/A   Clear
1:15 AM 42.8 °F 37.0 °F 32.0 °F 66% 30.21 in 10.0 mi WNW 10.4 mph - N/A   Clear
1:35 AM 42.8 °F 37.0 °F 32.0 °F 66% 30.21 in 10.0 mi WNW 10.4 mph - N/A   Clear
1:55 AM 42.8 °F 37.0 °F 32.0 °F 66% 30.20 in 10.0 mi WNW 10.4 mph 17.3 mph N/A   Mostly Cloudy
2:15 AM 42.8 °F 35.4 °F 32.0 °F 66% 30.20 in 10.0 mi WNW 15.0 mph 19.6 mph N/A   Scattered Clouds
2:35 AM 42.8 °F 36.6 °F 32.0 °F 66% 30.19 in 10.0 mi NW 11.5 mph 23.0 mph N/A   Clear
2:55 AM 42.8 °F 35.1 °F 32.0 °F 66% 30.20 in 10.0 mi WNW 16.1 mph - N/A   Clear
3:15 AM 42.8 °F 36.6 °F 32.0 °F 66% 30.20 in 10.0 mi WNW 11.5 mph - N/A   Clear
3:35 AM 42.8 °F 35.8 °F 32.0 °F 66% 30.20 in 10.0 mi WNW 13.8 mph - N/A   Clear
3:55 AM 41.0 °F 33.5 °F 32.0 °F 70% 30.21 in 10.0 mi WNW 13.8 mph 17.3 mph N/A   Clear
4:15 AM 41.0 °F 34.3 °F 32.0 °F 70% 30.21 in 10.0 mi WNW 11.5 mph - N/A   Clear
4:35 AM 41.0 °F 33.5 °F 32.0 °F 70% 30.21 in 10.0 mi WNW 13.8 mph 19.6 mph N/A   Clear
4:55 AM 41.0 °F 32.8 °F 32.0 °F 70% 30.20 in 10.0 mi WNW 16.1 mph - N/A   Clear
5:15 AM 41.0 °F 32.8 °F 32.0 °F 70% 30.21 in 10.0 mi WNW 16.1 mph - N/A   Clear
5:35 AM 41.0 °F 33.9 °F 32.0 °F 70% 30.21 in 10.0 mi WNW 12.7 mph 20.7 mph N/A   Clear
5:55 AM 41.0 °F 34.7 °F 32.0 °F 70% 30.21 in 10.0 mi WNW 10.4 mph 17.3 mph N/A   Clear
6:15 AM 41.0 °F 34.7 °F 32.0 °F 70% 30.21 in 10.0 mi WNW 10.4 mph - N/A   Clear
6:35 AM 41.0 °F 32.8 °F 32.0 °F 70% 30.22 in 10.0 mi WNW 16.1 mph 20.7 mph N/A   Clear
6:55 AM 42.8 °F 34.5 °F 32.0 °F 66% 30.22 in 10.0 mi WNW 18.4 mph - N/A   Clear
7:15 AM 42.8 °F 35.4 °F 33.8 °F 70% 30.23 in 10.0 mi WNW 15.0 mph 23.0 mph N/A   Clear
7:35 AM 42.8 °F 35.4 °F 33.8 °F 70% 30.24 in 10.0 mi WNW 15.0 mph 19.6 mph N/A   Clear
7:55 AM 44.6 °F 37.2 °F 33.8 °F 66% 30.23 in 10.0 mi WNW 17.3 mph 21.9 mph N/A   Clear
8:15 AM 44.6 °F 37.8 °F 33.8 °F 66% 30.23 in 10.0 mi West 15.0 mph 20.7 mph N/A   Clear
8:35 AM 46.4 °F 39.5 °F 35.6 °F 66% 30.23 in 10.0 mi WNW 17.3 mph 25.3 mph N/A   Clear
8:55 AM 46.4 °F 39.8 °F 33.8 °F 62% 30.23 in 10.0 mi NW 16.1 mph 27.6 mph N/A   Unknown
9:15 AM 46.4 °F 39.8 °F 35.6 °F 66% 30.23 in 10.0 mi WNW 16.1 mph 26.5 mph N/A   Unknown
9:35 AM 46.4 °F 39.8 °F 35.6 °F 66% 30.22 in 10.0 mi NW 16.1 mph 23.0 mph N/A   Unknown
9:55 AM 48.2 °F - 35.6 °F 62% 30.22 in 10.0 mi NW 16.1 mph 25.3 mph N/A   Unknown
10:15 AM 50.0 °F - 35.6 °F 58% 30.21 in 10.0 mi NW 16.1 mph 21.9 mph N/A   Mostly Cloudy
10:35 AM 50.0 °F - 35.6 °F 58% 30.21 in 10.0 mi NW 15.0 mph 24.2 mph N/A   Unknown
10:55 AM 50.0 °F - 37.4 °F 62% 30.20 in 10.0 mi NW 16.1 mph 25.3 mph N/A   Unknown
11:15 AM 51.8 °F - 37.4 °F 58% 30.21 in 10.0 mi NW 13.8 mph 31.1 mph N/A   Clear
11:35 AM 53.6 °F - 35.6 °F 51% 30.21 in 10.0 mi NNW 16.1 mph 23.0 mph N/A   Clear
11:55 AM 53.6 °F - 37.4 °F 54% 30.21 in 10.0 mi NW 15.0 mph 28.8 mph N/A   Unknown
12:15 PM 55.4 °F - 37.4 °F 51% 30.20 in 10.0 mi West 18.4 mph 24.2 mph N/A   Scattered Clouds
12:35 PM 57.2 °F - 37.4 °F 48% 30.18 in 10.0 mi West 13.8 mph 23.0 mph N/A   Unknown
12:55 PM 57.2 °F - 37.4 °F 48% 30.17 in 10.0 mi NW 13.8 mph 26.5 mph N/A   Unknown
1:15 PM 59.0 °F - 37.4 °F 45% 30.17 in 10.0 mi WNW 15.0 mph 24.2 mph N/A   Unknown
1:35 PM 60.8 °F - 39.2 °F 45% 30.17 in 10.0 mi WNW 15.0 mph 27.6 mph N/A   Unknown
1:55 PM 60.8 °F - 37.4 °F 42% 30.16 in 10.0 mi WNW 20.7 mph 26.5 mph N/A   Unknown
2:15 PM 60.8 °F - 37.4 °F 42% 30.16 in 10.0 mi NW 20.7 mph 28.8 mph N/A   Unknown
2:35 PM 60.8 °F - 37.4 °F 42% 30.15 in 10.0 mi WNW 20.7 mph 27.6 mph N/A   Unknown
2:55 PM 60.8 °F - 37.4 °F 42% 30.15 in 10.0 mi WNW 12.7 mph 27.6 mph N/A   Unknown
3:15 PM 60.8 °F - 37.4 °F 42% 30.15 in 10.0 mi NW 15.0 mph 23.0 mph N/A   Unknown
3:35 PM 62.6 °F - 37.4 °F 39% 30.15 in 10.0 mi WNW 16.1 mph 26.5 mph N/A   Unknown
3:55 PM 62.6 °F - 37.4 °F 39% 30.15 in 10.0 mi NW 20.7 mph 29.9 mph N/A   Unknown
4:15 PM 62.6 °F - 37.4 °F 39% 30.14 in 10.0 mi WNW 24.2 mph - N/A   Unknown
4:35 PM 62.6 °F - 37.4 °F 39% 30.14 in 10.0 mi NW 15.0 mph 32.2 mph N/A   Unknown
4:55 PM 62.6 °F - 35.6 °F 37% 30.14 in 10.0 mi NW 18.4 mph 27.6 mph N/A   Unknown
5:15 PM 62.6 °F - 35.6 °F 37% 30.13 in 10.0 mi WNW 20.7 mph 28.8 mph N/A   Unknown
5:35 PM 62.6 °F - 37.4 °F 39% 30.13 in 10.0 mi NW 23.0 mph 26.5 mph N/A   Scattered Clouds
5:55 PM 62.6 °F - 37.4 °F 39% 30.13 in 10.0 mi NW 18.4 mph 27.6 mph N/A   Unknown
6:15 PM 62.6 °F - 37.4 °F 39% 30.13 in 10.0 mi WNW 17.3 mph 24.2 mph N/A   Unknown
6:35 PM 62.6 °F - 35.6 °F 37% 30.13 in 10.0 mi NW 23.0 mph - N/A   Unknown
6:55 PM 60.8 °F - 35.6 °F 39% 30.13 in 10.0 mi NW 18.4 mph 26.5 mph N/A   Unknown
7:15 PM 60.8 °F - 37.4 °F 42% 30.14 in 10.0 mi NW 17.3 mph 23.0 mph N/A   Unknown
7:35 PM 60.8 °F - 35.6 °F 39% 30.15 in 10.0 mi NW 12.7 mph 21.9 mph N/A   Unknown
7:55 PM 59.0 °F - 37.4 °F 45% 30.15 in 10.0 mi WNW 9.2 mph - N/A   Scattered Clouds
8:15 PM 59.0 °F - 35.6 °F 42% 30.15 in 10.0 mi West 8.1 mph - N/A   Clear
8:35 PM 57.2 °F - 35.6 °F 44% 30.15 in 10.0 mi WNW 13.8 mph 17.3 mph N/A   Scattered Clouds
8:55 PM 55.4 °F - 35.6 °F 47% 30.15 in 10.0 mi WNW 15.0 mph - N/A   Clear
9:15 PM 55.4 °F - 35.6 °F 47% 30.15 in 10.0 mi WNW 12.7 mph - N/A   Clear
9:35 PM 55.4 °F - 35.6 °F 47% 30.16 in 10.0 mi WNW 10.4 mph - N/A   Scattered Clouds
9:55 PM 55.4 °F - 35.6 °F 47% 30.16 in 10.0 mi WNW 12.7 mph - N/A   Scattered Clouds
10:15 PM 55.4 °F - 33.8 °F 44% 30.17 in 10.0 mi NW 15.0 mph - N/A   Clear
10:35 PM 53.6 °F - 33.8 °F 47% 30.18 in 10.0 mi NW 6.9 mph - N/A   Clear
10:55 PM 53.6 °F - 33.8 °F 47% 30.19 in 10.0 mi Calm Calm - N/A   Clear
11:15 PM 51.8 °F - 35.6 °F 54% 30.18 in 10.0 mi NW 4.6 mph - N/A   Clear
11:35 PM 46.4 °F 42.9 °F 35.6 °F 66% 30.18 in 10.0 mi WNW 6.9 mph - N/A   Clear
11:55 PM 46.4 °F 44.3 °F 35.6 °F 66% 30.19 in 10.0 mi WNW 4.6 mph - N/A   Scattered Clouds